{"data":{"norad_id":64453,"epoch":"2026-09-20T11:05:43.774080Z","epoch_age_seconds":134969,"freshness":"FRESH","line1":"1 64453U 25130R   26263.46231220  .00017497  00000+0  52766-3 0  9998","line2":"2 64453  53.1594 259.5849 0001452  86.0901 274.0267 15.34407267 70586","mean_motion":15.34407267,"eccentricity":0.0001452,"inclination_deg":53.1594,"raan_deg":259.5849,"arg_perigee_deg":86.0901,"mean_anomaly_deg":274.0267,"bstar":0.00052766,"rev_number":7058,"period_min":93.847313615467,"perigee_km":461.68835437019,"apogee_km":463.67492810361,"semimajor_km":6840.8186412369,"source":"CELESTRAK","updated_at":"2026-09-21T09:00:35.355202Z"}}